| time (UTC) | temp F | wind direction | speed MPH | gust MPH | rain 1hr in | rain 24hr in | rain mn in | humidity % | barometer mb |
| 20260905204631 | 77 | 36 | 1.0 | 3.0 | 0.00 | 0.00 | 0.00 | 81 | 1015.8 |
| 20260905204130 | 77 | 37 | 0.0 | 3.0 | 0.00 | 0.00 | 0.00 | 82 | 1015.8 |
| 20260905203634 | 77 | 85 | 0.0 | 0.0 | 0.00 | 0.00 | 0.00 | 82 | 1015.9 |
| 20260905203127 | 77 | 85 | 0.0 | 0.0 | 0.00 | 0.00 | 0.00 | 81 | 1015.9 |
| 20260905202622 | 77 | 85 | 0.0 | 4.0 | 0.00 | 0.00 | 0.00 | 83 | 1015.8 |
| 20260905202117 | 77 | 85 | 0.0 | 4.0 | 0.00 | 0.00 | 0.00 | 81 | 1015.8 |
| 20260905201617 | 76 | 85 | 1.0 | 4.0 | 0.00 | 0.00 | 0.00 | 82 | 1015.8 |
| 20260905201118 | 76 | 85 | 2.0 | 4.0 | 0.00 | 0.00 | 0.00 | 82 | 1015.6 |
| 20260905200622 | 76 | 92 | 2.0 | 4.0 | 0.00 | 0.00 | 0.00 | 82 | 1015.7 |
| 20260905200117 | 76 | 100 | 1.0 | 6.0 | 0.00 | 0.00 | 0.00 | 82 | 1015.8 |
| 20260905195618 | 77 | 101 | 0.0 | 6.0 | 0.00 | 0.00 | 0.00 | 82 | 1015.9 |
| 20260905195116 | 77 | 5 | 0.0 | 0.0 | 0.00 | 0.00 | 0.00 | 81 | 1015.9 |
| 20260905194616 | 77 | 5 | 0.0 | 0.0 | 0.00 | 0.00 | 0.00 | 82 | 1016.0 |
| 20260905194116 | 76 | 5 | 0.0 | 0.0 | 0.00 | 0.00 | 0.00 | 82 | 1016.0 |
| 20260905193615 | 76 | 5 | 0.0 | 0.0 | 0.00 | 0.00 | 0.00 | 83 | 1016.0 |
| 20260905193112 | 76 | 5 | 0.0 | 0.0 | 0.00 | 0.00 | 0.00 | 82 | 1016.0 |
| 20260905192734 | 76 | 38 | 0.0 | 3.0 | 0.00 | 0.00 | 0.00 | 83 | 1016.2 |
| 20260905192704 | 76 | 0 | 0.0 | 0.0 | 0.00 | 0.00 | 0.00 | 83 | 1016.1 |
| 20260905191609 | 76 | 38 | 1.0 | 3.0 | 0.00 | 0.00 | 0.00 | 83 | 1016.1 |
| 20260905191109 | 76 | 38 | 2.0 | 4.0 | 0.00 | 0.00 | 0.00 | 84 | 1016.0 |
| 20260905190610 | 76 | 68 | 2.0 | 5.0 | 0.00 | 0.00 | 0.00 | 84 | 1015.9 |
| 20260905190109 | 76 | 75 | 2.0 | 5.0 | 0.00 | 0.00 | 0.00 | 84 | 1015.9 |
| 20260905185608 | 76 | 63 | 2.0 | 5.0 | 0.00 | 0.00 | 0.00 | 85 | 1016.0 |
| 20260905185108 | 76 | 62 | 3.0 | 6.0 | 0.00 | 0.00 | 0.00 | 85 | 1016.0 |
| 20260905184607 | 76 | 28 | 3.0 | 6.0 | 0.00 | 0.00 | 0.00 | 86 | 1016.0 |
| 20260905184411 | 76 | 129 | 3.0 | 7.0 | 0.00 | 0.00 | 0.00 | 86 | 1015.9 |
| 20260905183904 | 76 | 50 | 4.0 | 9.0 | 0.00 | 0.00 | 0.00 | 86 | 1016.0 |
| 20260905183105 | 75 | 76 | 4.0 | 9.0 | 0.00 | 0.00 | 0.00 | 85 | 1016.1 |
| 20260905182607 | 75 | 79 | 4.0 | 8.0 | 0.00 | 0.00 | 0.00 | 85 | 1016.1 |
| 20260905182105 | 75 | 84 | 4.0 | 8.0 | 0.00 | 0.00 | 0.00 | 85 | 1016.2 |
| 20260905181605 | 75 | 88 | 4.0 | 8.0 | 0.00 | 0.00 | 0.00 | 85 | 1016.2 |
| 20260905181109 | 75 | 66 | 4.0 | 8.0 | 0.00 | 0.00 | 0.00 | 84 | 1016.1 |
| 20260905180609 | 75 | 74 | 3.0 | 8.0 | 0.00 | 0.00 | 0.00 | 85 | 1016.2 |
| 20260905180108 | 75 | 70 | 4.0 | 8.0 | 0.00 | 0.00 | 0.00 | 84 | 1016.3 |
| 20260905175608 | 76 | 76 | 4.0 | 8.0 | 0.00 | 0.00 | 0.00 | 84 | 1016.3 |
| 20260905175107 | 76 | 84 | 3.0 | 8.0 | 0.00 | 0.00 | 0.00 | 84 | 1016.3 |
| 20260905174609 | 76 | 85 | 4.0 | 8.0 | 0.00 | 0.00 | 0.00 | 85 | 1016.4 |
| 20260905174107 | 76 | 101 | 3.0 | 7.0 | 0.00 | 0.00 | 0.00 | 84 | 1016.4 |
| 20260905173917 | 76 | 80 | 2.0 | 7.0 | 0.00 | 0.00 | 0.00 | 86 | 1016.3 |
| 20260905173103 | 76 | 94 | 3.0 | 6.0 | 0.00 | 0.00 | 0.00 | 87 | 1016.4 |
| 20260905172603 | 75 | 75 | 3.0 | 6.0 | 0.00 | 0.00 | 0.00 | 86 | 1016.4 |
| 20260905172103 | 75 | 86 | 2.0 | 6.0 | 0.00 | 0.00 | 0.00 | 87 | 1016.4 |
| 20260905171602 | 75 | 87 | 3.0 | 7.0 | 0.00 | 0.00 | 0.00 | 87 | 1016.4 |
| 20260905171405 | 75 | 76 | 3.0 | 8.0 | 0.00 | 0.00 | 0.00 | 86 | 1016.4 |
| 20260905170603 | 75 | 77 | 3.0 | 8.0 | 0.00 | 0.00 | 0.00 | 87 | 1016.4 |
| 20260905170406 | 75 | 90 | 2.0 | 7.0 | 0.00 | 0.00 | 0.00 | 87 | 1016.5 |
| 20260905165602 | 75 | 94 | 3.0 | 7.0 | 0.00 | 0.00 | 0.00 | 87 | 1016.4 |
| 20260905165101 | 75 | 75 | 3.0 | 7.0 | 0.00 | 0.00 | 0.00 | 86 | 1016.4 |
| 20260905164909 | 75 | 71 | 2.0 | 7.0 | 0.00 | 0.00 | 0.00 | 88 | 1016.4 |
| 20260905164408 | 75 | 82 | 2.0 | 6.0 | 0.00 | 0.00 | 0.00 | 88 | 1016.4 |
| 20260905163602 | 74 | 92 | 2.0 | 6.0 | 0.00 | 0.00 | 0.00 | 88 | 1016.3 |
| 20260905163102 | 74 | 88 | 2.0 | 4.0 | 0.00 | 0.00 | 0.00 | 88 | 1016.4 |
| 20260905162602 | 74 | 89 | 2.0 | 4.0 | 0.00 | 0.00 | 0.00 | 88 | 1016.4 |
| 20260905162406 | 74 | 90 | 2.0 | 4.0 | 0.00 | 0.00 | 0.00 | 88 | 1016.4 |
| 20260905161601 | 75 | 74 | 2.0 | 4.0 | 0.00 | 0.00 | 0.00 | 88 | 1016.4 |
| 20260905161105 | 75 | 96 | 2.0 | 4.0 | 0.00 | 0.00 | 0.00 | 88 | 1016.4 |
| 20260905160603 | 75 | 45 | 1.0 | 3.0 | 0.00 | 0.00 | 0.00 | 89 | 1016.3 |
| 20260905160416 | 75 | 92 | 2.0 | 6.0 | 0.00 | 0.00 | 0.00 | 88 | 1016.2 |
| 20260905155602 | 75 | 92 | 2.0 | 6.0 | 0.00 | 0.00 | 0.00 | 88 | 1016.2 |
| 20260905155102 | 75 | 89 | 2.0 | 4.0 | 0.00 | 0.00 | 0.00 | 88 | 1016.2 |
| 20260905154602 | 75 | 74 | 1.0 | 4.0 | 0.00 | 0.00 | 0.00 | 88 | 1016.2 |
| 20260905154402 | 75 | 91 | 1.0 | 3.0 | 0.00 | 0.00 | 0.00 | 90 | 1016.2 |
| 20260905153605 | 75 | 91 | 1.0 | 4.0 | 0.00 | 0.00 | 0.00 | 90 | 1016.1 |
| 20260905153103 | 74 | 92 | 2.0 | 4.0 | 0.00 | 0.00 | 0.00 | 90 | 1016.1 |
| 20260905152602 | 74 | 63 | 2.0 | 4.0 | 0.00 | 0.00 | 0.00 | 90 | 1016.0 |
| 20260905152103 | 74 | 62 | 2.0 | 6.0 | 0.00 | 0.00 | 0.00 | 90 | 1015.9 |
| 20260905151602 | 74 | 97 | 2.0 | 6.0 | 0.00 | 0.00 | 0.00 | 90 | 1015.9 |
| 20260905151102 | 74 | 100 | 2.0 | 4.0 | 0.00 | 0.00 | 0.00 | 91 | 1015.9 |
| 20260905150602 | 74 | 84 | 1.0 | 4.0 | 0.00 | 0.00 | 0.00 | 90 | 1015.8 |
| 20260905145602 | 74 | 17 | 0.0 | 0.0 | 0.00 | 0.00 | 0.00 | 91 | 1015.8 |
| 20260905145103 | 74 | 17 | 0.0 | 2.0 | 0.00 | 0.00 | 0.00 | 92 | 1015.7 |
| 20260905144727 | 74 | 12 | 0.0 | 0.0 | 0.00 | 0.00 | 0.00 | 92 | 1015.7 |
| 20260905144657 | 74 | 17 | 0.0 | 2.0 | 0.00 | 0.00 | 0.00 | 92 | 1015.7 |
| 20260905143603 | 73 | 12 | 0.0 | 0.0 | 0.00 | 0.00 | 0.00 | 92 | 1015.6 |
| 20260905143104 | 73 | 11 | 0.0 | 0.0 | 0.00 | 0.00 | 0.00 | 92 | 1015.6 |
| 20260905142604 | 73 | 11 | 0.0 | 0.0 | 0.00 | 0.00 | 0.00 | 92 | 1015.7 |
| 20260905142102 | 73 | 5 | 0.0 | 0.0 | 0.00 | 0.00 | 0.00 | 92 | 1015.6 |
| 20260905141911 | 73 | 5 | 0.0 | 0.0 | 0.00 | 0.00 | 0.00 | 92 | 1015.5 |
| 20260905141102 | 73 | 5 | 0.0 | 0.0 | 0.00 | 0.00 | 0.00 | 92 | 1015.5 |
| 20260905140603 | 73 | 5 | 0.0 | 0.0 | 0.00 | 0.00 | 0.00 | 92 | 1015.5 |
| 20260905135906 | 73 | 5 | 0.0 | 0.0 | 0.00 | 0.00 | 0.00 | 93 | 1015.2 |
| 20260905135102 | 73 | 5 | 0.0 | 0.0 | 0.00 | 0.00 | 0.00 | 93 | 1015.2 |
| 20260905134604 | 73 | 5 | 0.0 | 0.0 | 0.00 | 0.00 | 0.00 | 93 | 1015.1 |
| 20260905134102 | 73 | 5 | 0.0 | 0.0 | 0.00 | 0.00 | 0.00 | 93 | 1015.1 |
| 20260905133602 | 73 | 5 | 0.0 | 0.0 | 0.00 | 0.00 | 0.00 | 93 | 1015.0 |
| 20260905133103 | 73 | 5 | 0.0 | 0.0 | 0.00 | 0.00 | 0.00 | 93 | 1014.9 |
| 20260905132602 | 73 | 5 | 0.0 | 0.0 | 0.00 | 0.00 | 0.00 | 93 | 1014.7 |
| 20260905132104 | 73 | 5 | 0.0 | 0.0 | 0.00 | 0.00 | 0.00 | 93 | 1014.6 |
| 20260905131604 | 73 | 5 | 0.0 | 0.0 | 0.00 | 0.00 | 0.00 | 93 | 1014.6 |
| 20260905131103 | 73 | 5 | 0.0 | 0.0 | 0.00 | 0.00 | 0.00 | 93 | 1014.6 |
| 20260905130602 | 73 | 5 | 0.0 | 0.0 | 0.00 | 0.00 | 0.00 | 93 | 1014.7 |
| 20260905125603 | 73 | 5 | 0.0 | 0.0 | 0.00 | 0.00 | 0.00 | 93 | 1014.7 |
| 20260905125409 | 72 | 5 | 0.0 | 0.0 | 0.00 | 0.00 | 0.00 | 93 | 1014.6 |
| 20260905124602 | 72 | 5 | 0.0 | 0.0 | 0.00 | 0.00 | 0.00 | 93 | 1014.7 |
| 20260905124104 | 72 | 5 | 0.0 | 0.0 | 0.00 | 0.00 | 0.00 | 93 | 1014.6 |
| 20260905123602 | 72 | 5 | 0.0 | 0.0 | 0.00 | 0.00 | 0.00 | 93 | 1014.6 |
| 20260905123104 | 72 | 5 | 0.0 | 0.0 | 0.00 | 0.00 | 0.00 | 93 | 1014.6 |
| 20260905122603 | 72 | 5 | 0.0 | 0.0 | 0.00 | 0.00 | 0.00 | 93 | 1014.5 |
| 20260905122102 | 72 | 5 | 0.0 | 0.0 | 0.00 | 0.00 | 0.00 | 93 | 1014.5 |
| 20260905121603 | 72 | 5 | 0.0 | 2.0 | 0.00 | 0.00 | 0.00 | 93 | 1014.5 |
| 20260905121102 | 72 | 5 | 1.0 | 3.0 | 0.00 | 0.00 | 0.00 | 93 | 1014.4 |
| 20260905120603 | 72 | 5 | 0.0 | 3.0 | 0.00 | 0.00 | 0.00 | 93 | 1014.4 |
| 20260905120103 | 72 | 5 | 0.0 | 0.0 | 0.00 | 0.00 | 0.00 | 93 | 1014.1 |
| 20260905115604 | 72 | 5 | 0.0 | 0.0 | 0.00 | 0.00 | 0.00 | 93 | 1014.1 |
| 20260905115104 | 72 | 5 | 0.0 | 0.0 | 0.00 | 0.00 | 0.00 | 93 | 1014.0 |
| 20260905114603 | 72 | 5 | 0.0 | 0.0 | 0.00 | 0.00 | 0.00 | 93 | 1014.0 |
| 20260905114104 | 72 | 5 | 0.0 | 0.0 | 0.00 | 0.00 | 0.00 | 93 | 1013.9 |
| 20260905113603 | 72 | 5 | 0.0 | 0.0 | 0.00 | 0.00 | 0.00 | 93 | 1013.9 |
| 20260905113412 | 72 | 5 | 0.0 | 0.0 | 0.00 | 0.00 | 0.00 | 93 | 1013.8 |
| 20260905112603 | 72 | 5 | 0.0 | 0.0 | 0.00 | 0.00 | 0.00 | 94 | 1013.8 |
| 20260905112103 | 72 | 5 | 0.0 | 0.0 | 0.00 | 0.00 | 0.00 | 94 | 1014.0 |
| 20260905111605 | 72 | 5 | 0.0 | 0.0 | 0.00 | 0.00 | 0.00 | 93 | 1013.7 |
| 20260905111105 | 72 | 5 | 0.0 | 0.0 | 0.00 | 0.00 | 0.00 | 94 | 1013.4 |
| 20260905110604 | 72 | 5 | 0.0 | 0.0 | 0.00 | 0.00 | 0.00 | 93 | 1013.2 |
| 20260905110104 | 72 | 5 | 0.0 | 0.0 | 0.00 | 0.00 | 0.00 | 93 | 1013.2 |
| 20260905105604 | 72 | 5 | 0.0 | 0.0 | 0.00 | 0.03 | 0.00 | 93 | 1013.3 |
| 20260905105104 | 72 | 5 | 0.0 | 0.0 | 0.00 | 0.03 | 0.00 | 94 | 1013.4 |
| 20260905104603 | 72 | 5 | 0.0 | 0.0 | 0.00 | 0.04 | 0.00 | 93 | 1013.2 |
| 20260905104103 | 72 | 5 | 0.0 | 0.0 | 0.00 | 0.05 | 0.00 | 93 | 1013.2 |
| 20260905103603 | 72 | 5 | 0.0 | 0.0 | 0.00 | 0.13 | 0.00 | 93 | 1013.3 |
| 20260905103523 | 72 | 5 | 0.0 | 0.0 | 0.00 | 0.13 | 0.00 | 93 | 1013.1 |
| 20260905103518 | 72 | 5 | 0.0 | 0.0 | 0.00 | 0.13 | 0.00 | 93 | 1013.1 |
| 20260905102103 | 72 | 5 | 0.0 | 0.0 | 0.00 | 0.13 | 0.00 | 93 | 1013.0 |
| 20260905101914 | 72 | 5 | 0.0 | 0.0 | 0.00 | 0.13 | 0.00 | 93 | 1013.0 |
| 20260905101103 | 72 | 5 | 0.0 | 0.0 | 0.00 | 0.13 | 0.00 | 93 | 1013.0 |
| 20260905100603 | 72 | 5 | 0.0 | 0.0 | 0.00 | 0.13 | 0.00 | 93 | 1013.0 |
| 20260905095603 | 72 | 5 | 0.0 | 0.0 | 0.00 | 0.13 | 0.00 | 92 | 1013.0 |
| 20260905095105 | 72 | 5 | 0.0 | 0.0 | 0.00 | 0.14 | 0.00 | 92 | 1013.1 |
| 20260905094603 | 72 | 5 | 1.0 | 3.0 | 0.00 | 0.14 | 0.00 | 92 | 1013.1 |
| 20260905094103 | 72 | 5 | 1.0 | 3.0 | 0.00 | 0.14 | 0.00 | 92 | 1013.2 |
| 20260905093916 | 72 | 5 | 1.0 | 3.0 | 0.00 | 0.14 | 0.00 | 92 | 1013.2 |
| 20260905093415 | 72 | 5 | 1.0 | 3.0 | 0.00 | 0.14 | 0.00 | 91 | 1013.2 |
| 20260905092603 | 72 | 5 | 2.0 | 3.0 | 0.00 | 0.14 | 0.00 | 91 | 1013.3 |
| 20260905092103 | 72 | 5 | 2.0 | 4.0 | 0.00 | 0.14 | 0.00 | 91 | 1013.2 |
| 20260905091604 | 72 | 5 | 2.0 | 4.0 | 0.00 | 0.14 | 0.00 | 91 | 1013.2 |
| 20260905091108 | 72 | 13 | 1.0 | 3.0 | 0.00 | 0.14 | 0.00 | 91 | 1013.2 |
| 20260905090606 | 72 | 80 | 0.0 | 0.0 | 0.00 | 0.14 | 0.00 | 91 | 1013.2 |
| 20260905090105 | 72 | 80 | 0.0 | 0.0 | 0.00 | 0.14 | 0.00 | 91 | 1013.2 |
| 20260905085604 | 71 | 80 | 0.0 | 0.0 | 0.00 | 0.14 | 0.00 | 91 | 1013.1 |
| 20260905085103 | 71 | 80 | 0.0 | 0.0 | 0.00 | 0.14 | 0.00 | 91 | 1013.1 |
| 20260905084604 | 71 | 80 | 0.0 | 0.0 | 0.00 | 0.14 | 0.00 | 91 | 1013.1 |
| 20260905084103 | 71 | 80 | 0.0 | 0.0 | 0.00 | 0.14 | 0.00 | 90 | 1013.1 |
| 20260905083604 | 71 | 80 | 0.0 | 0.0 | 0.00 | 0.14 | 0.00 | 90 | 1013.1 |
| 20260905083400 | 71 | 80 | 0.0 | 0.0 | 0.00 | 0.14 | 0.00 | 90 | 1013.1 |
| 20260905082606 | 71 | 80 | 0.0 | 0.0 | 0.00 | 0.14 | 0.00 | 90 | 1013.1 |
| 20260905082106 | 71 | 80 | 0.0 | 0.0 | 0.00 | 0.14 | 0.00 | 89 | 1013.1 |
| 20260905081603 | 71 | 80 | 0.0 | 0.0 | 0.00 | 0.14 | 0.00 | 89 | 1013.0 |
| 20260905081102 | 71 | 80 | 0.0 | 0.0 | 0.00 | 0.14 | 0.00 | 89 | 1012.9 |
| 20260905080603 | 71 | 80 | 0.0 | 0.0 | 0.00 | 0.14 | 0.00 | 89 | 1013.0 |
| 20260905075602 | 71 | 80 | 0.0 | 0.0 | 0.00 | 0.14 | 0.00 | 89 | 1013.0 |
| 20260905075103 | 72 | 80 | 0.0 | 0.0 | 0.00 | 0.14 | 0.00 | 90 | 1013.0 |
| 20260905074602 | 72 | 80 | 0.0 | 0.0 | 0.00 | 0.14 | 0.00 | 90 | 1013.1 |
| 20260905074103 | 72 | 80 | 0.0 | 0.0 | 0.00 | 0.14 | 0.00 | 91 | 1013.0 |
| 20260905073601 | 72 | 80 | 0.0 | 0.0 | 0.00 | 0.14 | 0.00 | 91 | 1012.9 |
| 20260905073054 | 72 | 80 | 0.0 | 0.0 | 0.00 | 0.14 | 0.00 | 91 | 1012.9 |
| 20260905072554 | 72 | 80 | 0.0 | 0.0 | 0.00 | 0.14 | 0.00 | 92 | 1012.9 |
| 20260905072349 | 72 | 80 | 0.0 | 0.0 | 0.00 | 0.14 | 0.00 | 91 | 1012.8 |
| 20260905071846 | 73 | 80 | 0.0 | 0.0 | 0.00 | 0.14 | 0.00 | 92 | 1012.8 |
| 20260905071050 | 73 | 80 | 0.0 | 0.0 | 0.00 | 0.14 | 0.00 | 92 | 1012.9 |
| 20260905070550 | 73 | 80 | 0.0 | 0.0 | 0.00 | 0.14 | 0.00 | 92 | 1012.8 |
| 20260905070050 | 73 | 80 | 0.0 | 0.0 | 0.00 | 0.14 | 0.00 | 92 | 1012.8 |
| 20260905065548 | 73 | 80 | 0.0 | 0.0 | 0.00 | 0.14 | 0.00 | 91 | 1012.8 |
| 20260905065046 | 73 | 80 | 0.0 | 0.0 | 0.00 | 0.14 | 0.00 | 91 | 1012.8 |
| 20260905064811 | 73 | 80 | 0.0 | 0.0 | 0.00 | 0.14 | 0.00 | 90 | 1012.8 |
| 20260905064042 | 73 | 80 | 0.0 | 0.0 | 0.00 | 0.14 | 0.00 | 90 | 1012.8 |
| 20260905063542 | 73 | 80 | 0.0 | 0.0 | 0.00 | 0.14 | 0.00 | 89 | 1012.8 |
| 20260905063042 | 73 | 80 | 0.0 | 0.0 | 0.00 | 0.14 | 0.00 | 89 | 1012.8 |
| 20260905062540 | 73 | 80 | 0.0 | 0.0 | 0.00 | 0.14 | 0.00 | 89 | 1012.8 |
| 20260905062340 | 73 | 80 | 0.0 | 0.0 | 0.00 | 0.14 | 0.00 | 89 | 1012.8 |
| 20260905061538 | 73 | 80 | 0.0 | 0.0 | 0.00 | 0.14 | 0.00 | 89 | 1012.9 |
| 20260905061036 | 74 | 80 | 0.0 | 0.0 | 0.00 | 0.14 | 0.00 | 89 | 1012.9 |
| 20260905060534 | 74 | 80 | 0.0 | 0.0 | 0.00 | 0.14 | 0.00 | 90 | 1012.9 |
| 20260905060032 | 74 | 80 | 0.0 | 0.0 | 0.00 | 0.14 | 0.00 | 90 | 1012.8 |
| 20260905055530 | 74 | 80 | 0.0 | 0.0 | 0.00 | 0.14 | 0.00 | 90 | 1012.6 |
| 20260905055029 | 74 | 80 | 1.0 | 3.0 | 0.00 | 0.14 | 0.00 | 91 | 1012.7 |
| 20260905054529 | 74 | 80 | 2.0 | 5.0 | 0.00 | 0.14 | 0.00 | 91 | 1012.7 |
| 20260905054029 | 74 | 80 | 2.0 | 5.0 | 0.00 | 0.14 | 0.00 | 92 | 1012.7 |
| 20260905053529 | 74 | 84 | 2.0 | 6.0 | 0.00 | 0.14 | 0.00 | 92 | 1012.6 |
| 20260905053029 | 74 | 84 | 2.0 | 6.0 | 0.00 | 0.14 | 0.00 | 92 | 1012.7 |
| 20260905052843 | 74 | 75 | 2.0 | 4.0 | 0.00 | 0.14 | 0.00 | 92 | 1012.5 |
| 20260905052029 | 74 | 87 | 2.0 | 7.0 | 0.00 | 0.14 | 0.00 | 92 | 1012.5 |
| 20260905051840 | 74 | 76 | 2.0 | 7.0 | 0.00 | 0.14 | 0.00 | 93 | 1012.4 |
| 20260905051030 | 73 | 96 | 2.0 | 5.0 | 0.00 | 0.14 | 0.00 | 92 | 1012.3 |
| 20260905050903 | 73 | 111 | 0.0 | 4.0 | 0.00 | 0.14 | 0.00 | 92 | 1012.5 |
| 20260905050030 | 74 | 127 | 0.0 | 0.0 | 0.00 | 0.14 | 0.00 | 92 | 1012.4 |
| 20260905045755 | 74 | 127 | 0.0 | 0.0 | 0.00 | 0.14 | 0.14 | 92 | 1012.4 |
| 20260905045700 | 74 | 127 | 0.0 | 0.0 | 0.00 | 0.14 | 0.14 | 92 | 1012.4 |
| 20260905044528 | 74 | 127 | 0.0 | 0.0 | 0.00 | 0.14 | 0.14 | 92 | 1012.5 |
| 20260905044029 | 74 | 127 | 0.0 | 2.0 | 0.00 | 0.14 | 0.14 | 92 | 1012.4 |
| 20260905043847 | 74 | 76 | 1.0 | 4.0 | 0.00 | 0.14 | 0.14 | 93 | 1012.3 |
| 20260905043032 | 74 | 76 | 2.0 | 4.0 | 0.00 | 0.14 | 0.14 | 92 | 1012.2 |
| 20260905042746 | 74 | 173 | 0.0 | 3.0 | 0.00 | 0.14 | 0.14 | 92 | 1012.1 |
| 20260905042646 | 74 | 101 | 2.0 | 4.0 | 0.00 | 0.14 | 0.14 | 93 | 1012.2 |
| 20260905041533 | 74 | 173 | 0.0 | 0.0 | 0.00 | 0.14 | 0.14 | 92 | 1012.0 |
| 20260905041031 | 74 | 173 | 0.0 | 0.0 | 0.00 | 0.14 | 0.14 | 91 | 1012.0 |
| 20260905040530 | 75 | 173 | 0.0 | 0.0 | 0.00 | 0.14 | 0.14 | 91 | 1011.9 |
| 20260905040415 | 75 | 173 | 0.0 | 0.0 | 0.00 | 0.14 | 0.14 | 92 | 1011.9 |
| 20260905035530 | 75 | 173 | 0.0 | 0.0 | 0.00 | 0.14 | 0.14 | 92 | 1011.8 |
| 20260905035031 | 75 | 173 | 0.0 | 0.0 | 0.00 | 0.14 | 0.14 | 92 | 1011.8 |
| 20260905034531 | 75 | 173 | 0.0 | 0.0 | 0.00 | 0.14 | 0.14 | 92 | 1011.9 |
| 20260905034032 | 75 | 173 | 0.0 | 0.0 | 0.00 | 0.14 | 0.14 | 91 | 1011.8 |
| 20260905033912 | 75 | 173 | 0.0 | 0.0 | 0.00 | 0.14 | 0.14 | 91 | 1011.7 |
| 20260905033035 | 75 | 173 | 0.0 | 0.0 | 0.00 | 0.14 | 0.14 | 91 | 1011.7 |
| 20260905032530 | 75 | 173 | 0.0 | 0.0 | 0.00 | 0.14 | 0.14 | 91 | 1011.7 |
| 20260905032030 | 75 | 173 | 0.0 | 0.0 | 0.00 | 0.14 | 0.14 | 90 | 1011.6 |
| 20260905031529 | 75 | 173 | 0.0 | 0.0 | 0.00 | 0.14 | 0.14 | 90 | 1011.6 |
| 20260905031031 | 75 | 173 | 0.0 | 0.0 | 0.00 | 0.14 | 0.14 | 89 | 1011.6 |
| 20260905030759 | 76 | 173 | 0.0 | 1.0 | 0.00 | 0.14 | 0.14 | 89 | 1011.5 |
| 20260905030704 | 75 | 173 | 0.0 | 1.0 | 0.00 | 0.14 | 0.14 | 89 | 1011.6 |
| 20260905025529 | 76 | 253 | 0.0 | 2.0 | 0.00 | 0.14 | 0.14 | 88 | 1011.4 |
| 20260905025029 | 76 | 253 | 1.0 | 4.0 | 0.00 | 0.14 | 0.14 | 88 | 1011.3 |
| 20260905024529 | 77 | 259 | 1.0 | 4.0 | 0.00 | 0.14 | 0.14 | 89 | 1011.4 |
| 20260905024033 | 77 | 269 | 0.0 | 0.0 | 0.00 | 0.14 | 0.14 | 88 | 1011.7 |
| 20260905023648 | 77 | 103 | 0.0 | 0.0 | 0.00 | 0.14 | 0.14 | 87 | 1011.8 |
| 20260905023618 | 77 | 137 | 0.0 | 0.0 | 0.00 | 0.14 | 0.14 | 88 | 1011.7 |
| 20260905022840 | 77 | 102 | 0.0 | 0.0 | 0.00 | 0.14 | 0.14 | 87 | 1011.9 |
| 20260905022030 | 78 | 102 | 0.0 | 0.0 | 0.00 | 0.14 | 0.14 | 86 | 1011.9 |
| 20260905021529 | 78 | 102 | 0.0 | 0.0 | 0.00 | 0.14 | 0.14 | 85 | 1011.9 |
| 20260905021335 | 78 | 102 | 0.0 | 0.0 | 0.00 | 0.14 | 0.14 | 85 | 1011.8 |
| 20260905020529 | 78 | 102 | 0.0 | 0.0 | 0.00 | 0.14 | 0.14 | 84 | 1011.9 |
| 20260905020029 | 79 | 102 | 0.0 | 0.0 | 0.00 | 0.14 | 0.14 | 84 | 1012.0 |
| 20260905015528 | 79 | 102 | 0.0 | 0.0 | 0.00 | 0.14 | 0.14 | 83 | 1012.0 |
| 20260905015029 | 79 | 102 | 0.0 | 1.0 | 0.00 | 0.14 | 0.14 | 83 | 1011.9 |
| 20260905014530 | 79 | 102 | 1.0 | 3.0 | 0.00 | 0.14 | 0.14 | 82 | 1011.9 |
| 20260905014029 | 79 | 103 | 1.0 | 3.0 | 0.00 | 0.14 | 0.14 | 82 | 1011.9 |
| 20260905013529 | 79 | 130 | 0.0 | 0.0 | 0.00 | 0.14 | 0.14 | 82 | 1012.0 |
| 20260905013029 | 80 | 130 | 0.0 | 1.0 | 0.00 | 0.14 | 0.14 | 82 | 1011.9 |
| 20260905012528 | 80 | 130 | 1.0 | 3.0 | 0.00 | 0.14 | 0.14 | 81 | 1011.9 |
| 20260905012028 | 80 | 130 | 1.0 | 3.0 | 0.00 | 0.14 | 0.14 | 80 | 1011.8 |
| 20260905011528 | 80 | 130 | 1.0 | 3.0 | 0.00 | 0.14 | 0.14 | 80 | 1011.7 |
| 20260905011028 | 80 | 131 | 0.0 | 3.0 | 0.00 | 0.14 | 0.14 | 80 | 1011.5 |
| 20260905010530 | 80 | 215 | 0.0 | 0.0 | 0.00 | 0.14 | 0.14 | 80 | 1011.5 |
| 20260905010030 | 80 | 215 | 0.0 | 1.0 | 0.00 | 0.14 | 0.14 | 80 | 1011.4 |
| 20260905005528 | 80 | 215 | 0.0 | 1.0 | 0.00 | 0.14 | 0.14 | 80 | 1011.4 |
| 20260905005340 | 80 | 215 | 0.0 | 1.0 | 0.00 | 0.14 | 0.14 | 80 | 1011.4 |
| 20260905004529 | 81 | 215 | 0.0 | 1.0 | 0.00 | 0.14 | 0.14 | 79 | 1011.4 |
| 20260905004029 | 81 | 215 | 0.0 | 1.0 | 0.00 | 0.14 | 0.14 | 79 | 1011.3 |
| 20260905003531 | 81 | 215 | 0.0 | 0.0 | 0.00 | 0.14 | 0.14 | 78 | 1011.3 |
| 20260905003031 | 82 | 215 | 0.0 | 0.0 | 0.00 | 0.14 | 0.14 | 78 | 1011.2 |
| 20260905002532 | 82 | 215 | 0.0 | 1.0 | 0.00 | 0.14 | 0.14 | 78 | 1011.1 |
| 20260905002030 | 83 | 215 | 0.0 | 1.0 | 0.00 | 0.14 | 0.14 | 78 | 1011.0 |
| 20260905001527 | 83 | 215 | 0.0 | 2.0 | 0.00 | 0.14 | 0.14 | 78 | 1010.8 |
| 20260905001025 | 83 | 215 | 0.0 | 2.0 | 0.00 | 0.14 | 0.14 | 76 | 1010.7 |
| 20260905000523 | 83 | 215 | 0.0 | 2.0 | 0.00 | 0.14 | 0.14 | 75 | 1010.7 |
| 20260905000017 | 84 | 215 | 1.0 | 2.0 | 0.00 | 0.14 | 0.14 | 76 | 1010.7 |
| 20260904235820 | 84 | 215 | 1.0 | 3.0 | 0.00 | 0.14 | 0.14 | 75 | 1010.6 |
| 20260904235013 | 84 | 215 | 1.0 | 3.0 | 0.00 | 0.14 | 0.14 | 75 | 1010.5 |
| 20260904234514 | 84 | 215 | 1.0 | 3.0 | 0.00 | 0.14 | 0.14 | 75 | 1010.5 |
| 20260904234013 | 84 | 211 | 0.0 | 3.0 | 0.00 | 0.14 | 0.14 | 74 | 1010.5 |
| 20260904233920 | 85 | 236 | 0.0 | 2.0 | 0.00 | 0.14 | 0.14 | 75 | 1010.6 |
| 20260904233012 | 85 | 309 | 0.0 | 1.0 | 0.00 | 0.14 | 0.14 | 76 | 1010.5 |
| 20260904232510 | 85 | 309 | 0.0 | 3.0 | 0.00 | 0.14 | 0.14 | 75 | 1010.7 |
| 20260904232011 | 85 | 309 | 0.0 | 3.0 | 0.00 | 0.14 | 0.14 | 75 | 1010.7 |
| 20260904231513 | 85 | 273 | 0.0 | 1.0 | 0.00 | 0.14 | 0.14 | 75 | 1010.8 |
| 20260904231011 | 85 | 222 | 0.0 | 2.0 | 0.00 | 0.14 | 0.14 | 75 | 1010.8 |
| 20260904230511 | 85 | 222 | 1.0 | 2.0 | 0.00 | 0.14 | 0.14 | 73 | 1010.8 |
| 20260904230219 | 85 | 249 | 1.0 | 4.0 | 0.00 | 0.14 | 0.14 | 74 | 1010.8 |
| 20260904230119 | 85 | 250 | 1.0 | 4.0 | 0.00 | 0.14 | 0.14 | 73 | 1010.9 |
| 20260904225009 | 85 | 257 | 2.0 | 5.0 | 0.00 | 0.14 | 0.14 | 73 | 1010.8 |
| 20260904224509 | 86 | 234 | 2.0 | 5.0 | 0.00 | 0.14 | 0.14 | 72 | 1010.8 |
| 20260904224009 | 86 | 186 | 2.0 | 5.0 | 0.00 | 0.14 | 0.14 | 71 | 1010.8 |
| 20260904223509 | 86 | 250 | 2.0 | 4.0 | 0.00 | 0.14 | 0.14 | 71 | 1010.7 |
| 20260904223009 | 86 | 336 | 2.0 | 4.0 | 0.00 | 0.14 | 0.14 | 70 | 1010.6 |
| 20260904222507 | 87 | 300 | 2.0 | 4.0 | 0.00 | 0.14 | 0.14 | 71 | 1010.6 |
| 20260904222006 | 87 | 232 | 2.0 | 6.0 | 0.00 | 0.14 | 0.14 | 70 | 1010.6 |
| 20260904221708 | 87 | 262 | 1.0 | 3.0 | 0.00 | 0.14 | 0.14 | 73 | 1010.5 |
| 20260904221620 | 87 | 236 | 1.0 | 6.0 | 0.00 | 0.14 | 0.14 | 70 | 1010.7 |
| 20260904220504 | 87 | 262 | 1.0 | 3.0 | 0.00 | 0.14 | 0.14 | 72 | 1010.3 |
| 20260904220313 | 87 | 238 | 1.0 | 3.0 | 0.00 | 0.14 | 0.14 | 72 | 1010.3 |
| 20260904215502 | 87 | 231 | 1.0 | 3.0 | 0.00 | 0.14 | 0.14 | 71 | 1010.4 |
| 20260904215006 | 87 | 231 | 1.0 | 3.0 | 0.00 | 0.14 | 0.14 | 74 | 1010.3 |
| 20260904214501 | 87 | 231 | 1.0 | 4.0 | 0.00 | 0.14 | 0.14 | 72 | 1010.4 |
| 20260904214001 | 87 | 191 | 2.0 | 4.0 | 0.00 | 0.14 | 0.14 | 71 | 1010.4 |
| 20260904213500 | 87 | 198 | 2.0 | 4.0 | 0.00 | 0.14 | 0.14 | 71 | 1010.5 |
| 20260904213011 | 86 | 192 | 2.0 | 5.0 | 0.00 | 0.14 | 0.14 | 72 | 1010.6 |
| 20260904212507 | 86 | 217 | 3.0 | 6.0 | 0.00 | 0.14 | 0.14 | 72 | 1010.6 |
| 20260904212335 | 86 | 189 | 3.0 | 6.0 | 0.00 | 0.14 | 0.14 | 70 | 1010.6 |
| 20260904211501 | 87 | 186 | 3.0 | 6.0 | 0.00 | 0.14 | 0.14 | 70 | 1010.6 |
| 20260904211004 | 87 | 219 | 3.0 | 12.0 | 0.00 | 0.14 | 0.14 | 70 | 1010.5 |
| 20260904210501 | 87 | 194 | 2.0 | 12.0 | 0.00 | 0.14 | 0.14 | 73 | 1010.6 |
| 20260904210002 | 87 | 207 | 2.0 | 4.0 | 0.00 | 0.14 | 0.14 | 71 | 1010.5 |
| 20260904205502 | 87 | 180 | 1.0 | 4.0 | 0.00 | 0.14 | 0.14 | 72 | 1010.5 |
| 20260904205327 | 87 | 221 | 1.0 | 4.0 | 0.00 | 0.14 | 0.14 | 74 | 1010.5 |